Florala, AL

9:15 AM CDT on May 27, 2018 (GMT -0500)
Florala

Weather History for K0J4 - January, 2012

Change the Weather History Date:

Sunday, January 15, 2012

  Actual Average (KCEW) Record (KCEW)
Temperature  
Mean Temperature 52 °F -  
Max Temperature 66 °F 58 °F 78 °F (1952)
Min Temperature 37 °F 33 °F 18 °F (1982)
Degree Days  
Heating Degree Days 14    
Growing Degree Days 2 (Base 50)    
Moisture  
Dew Point 31 °F    
Average Humidity 55    
Maximum Humidity 82    
Minimum Humidity 24    
Precipitation  
Precipitation 0.00 in - - ()
Sea Level Pressure  
Sea Level Pressure 30.43 in    
Wind  
Wind Speed 2 mph (NE)    
Max Wind Speed 9 mph    
Max Gust Speed -    
Averages and records for this station are not official NWS values.
T = Trace of Precipitation, MM = Missing Value Source: NWS Daily Summary

Daily Weather History Graph

Daily Weather History Graph

Search for Another Location

Airport or City:

Astronomy

Jan. 15, 2012 Rise Set
Actual Time 6:44 AM CST 5:05 PM CST
Civil Twilight 6:17 AM CST 5:31 PM CST
Nautical Twilight 5:48 AM CST 6:01 PM CST
Astronomical Twilight 5:19 AM CST 6:30 PM CST
Moon 11:59 PM CST (1/15) 10:33 AM CST (1/15)
Length of Visible Light 11h 13m
Length of Day
10h 21m
Waning Gibbous, 57% of the Moon is Illuminated
Jan 15
Waning Gibbous
Jan 16
Last Quarter
Jan 23
New
Jan 30
First Quarter
Feb 7
Full

Hourly Weather History & Observations

Time (CST) Temp. Dew Point Humidity Pressure Visibility Wind Dir Wind Speed Gust Speed Precip Events Conditions
12:58 AM 42.1 °F 33.1 °F 70% 30.35 in - Calm Calm - N/A   Clear
1:58 AM 44.1 °F 33.1 °F 65% 30.35 in - Calm Calm - N/A   Clear
2:58 AM 42.1 °F 33.1 °F 70% 30.36 in - Calm Calm - N/A   Clear
3:58 AM 41.0 °F 33.1 °F 73% 30.37 in - Calm Calm - N/A   Clear
5:58 AM 37.0 °F 32.0 °F 82% 30.42 in - Calm Calm - N/A   Clear
6:58 AM 37.0 °F 30.9 °F 79% 30.44 in - Calm Calm - N/A   Clear
7:58 AM 45.0 °F 34.0 °F 65% 30.47 in - Calm Calm - N/A   Clear
9:58 AM 55.9 °F 30.9 °F 39% 30.51 in - ENE 9.2 mph - N/A   Clear
10:58 AM 60.1 °F 28.9 °F 31% 30.49 in - ENE 6.9 mph - N/A   Clear
11:58 AM 62.1 °F 30.0 °F 30% 30.47 in - East 4.6 mph - N/A   Clear
12:58 PM 64.9 °F 28.9 °F 26% 30.44 in - NNE 8.1 mph - N/A   Clear
1:58 PM 66.0 °F 28.0 °F 24% 30.43 in - NW 4.6 mph - N/A   Clear
2:58 PM 64.9 °F 28.9 °F 26% 30.43 in - Variable 5.8 mph - N/A   Clear
3:58 PM 64.0 °F 28.0 °F 26% 30.42 in - ESE 4.6 mph - N/A   Clear
4:58 PM 55.9 °F 33.1 °F 42% 30.43 in - Calm Calm - N/A   Clear
5:58 PM 50.0 °F 35.1 °F 57% 30.44 in - Calm Calm - N/A   Clear
6:58 PM 43.0 °F 33.1 °F 68% 30.45 in - Calm Calm - N/A   Clear
7:58 PM 42.1 °F 32.0 °F 67% 30.45 in - Calm Calm - N/A   Clear
8:58 PM 43.0 °F 32.0 °F 65% 30.45 in - Calm Calm - N/A   Clear
9:59 PM - - N/A% - - North - - N/A   Unknown
10:58 PM 37.9 °F 30.0 °F 73% 30.45 in - Calm Calm - N/A   Clear
11:58 PM 39.9 °F 30.9 °F 70% 30.45 in - Calm Calm - N/A   Clear